Toronto Pearson, Ontario

4:01 AM EDT on September 30, 2016 (GMT -0400)
Toronto Pearson

Weather History for 71624 - November, 2012

Change the Weather History Date:

Friday, November 2, 2012

  Actual Average Record
Temperature  
Mean Temperature 38 °F -  
Max Temperature 40 °F - - ()
Min Temperature 35 °F - - ()
Degree Days  
Heating Degree Days 28    
Moisture  
Dew Point 31 °F    
Average Humidity 74    
Maximum Humidity 87    
Minimum Humidity 59    
Precipitation  
Precipitation 0.02 in - - ()
Sea Level Pressure  
Sea Level Pressure 29.77 in    
Wind  
Wind Speed 11 mph ()    
Max Wind Speed 18 mph    
Max Gust Speed 23 mph    
Visibility 13.8 miles    
Events Rain    
T = Trace of Precipitation, MM = Missing Value Source: Averaged Metar Reports

Daily Weather History Graph

Daily Weather History Graph

Search for Another Location

Airport or City:

Trip Planner

Search our weather history database for the weather conditions in past years. The results will help you decide how hot, cold, wet, or windy it might be!

Date:

Astronomy

Nov. 02, 2012 Rise Set
Actual Time 7:56 AM EDT 6:07 PM EDT
Civil Twilight 7:26 AM EDT 6:37 PM EDT
Nautical Twilight 6:52 AM EDT 7:11 PM EDT
Astronomical Twilight 6:18 AM EDT 7:44 PM EDT
Moon 8:49 PM EDT (11/2) 11:19 AM EDT (11/2)
Length of Visible Light 11h 11m
Length of Day
10h 11m
Waning Gibbous, 87% of the Moon is Illuminated
Nov 2
Waning Gibbous
Nov 6
Last Quarter
Nov 13
New
Nov 20
First Quarter
Nov 28
Full

Hourly Weather History & Observations

Time (EDT) Temp. Windchill Dew Point Humidity Pressure Visibility Wind Dir Wind Speed Gust Speed Precip Events Conditions
12:00 AM 39.2 °F 30.8 °F 32.0 °F 75% 29.64 in 15.0 mi WNW 15.0 mph - N/A   Overcast
1:00 AM 39.2 °F 31.6 °F 30.2 °F 70% 29.64 in 15.0 mi WNW 12.7 mph 18.4 mph N/A   Overcast
2:00 AM 39 °F - 31 °F 65% 29.65 in 15 mi WNW 8.1 mph - -   Partly Cloudy
2:00 AM 39.2 °F 32.5 °F 32.0 °F 75% 29.65 in 15.0 mi WNW 10.4 mph - N/A   Overcast
3:00 AM 39.2 °F 32.5 °F 30.2 °F 70% 29.66 in 15.0 mi WNW 10.4 mph - N/A   Overcast
4:00 AM 37.4 °F 29.8 °F 30.2 °F 75% 29.66 in 15.0 mi WNW 11.5 mph - N/A   Overcast
5:00 AM 37.4 °F 28.9 °F 30.2 °F 75% 29.66 in 15.0 mi WNW 13.8 mph - N/A   Mostly Cloudy
6:00 AM 37.4 °F 29.3 °F 28.4 °F 70% 29.67 in 15.0 mi NW 12.7 mph 18.4 mph N/A   Mostly Cloudy
7:00 AM 37.4 °F 28.9 °F 28.4 °F 70% 29.69 in 15.0 mi NW 13.8 mph - N/A   Mostly Cloudy
7:43 AM 35.6 °F 27.5 °F - N/A% - 15.0 mi NW 11.5 mph - N/A   Mostly Cloudy
8:00 AM 36 °F - 28 °F 65% 29.71 in 15 mi NW 13.8 mph - -   Scattered Clouds
8:00 AM 35.6 °F 26.2 °F 28.4 °F 75% 29.71 in 15.0 mi NW 15.0 mph - N/A   Mostly Cloudy
9:00 AM 37.4 °F 28.9 °F 30.2 °F 75% 29.74 in 15.0 mi NW 13.8 mph - N/A   Overcast
9:25 AM 37.4 °F 29.3 °F - N/A% - 15.0 mi NW 12.7 mph 18.4 mph N/A Rain Light Rain
10:00 AM 37.4 °F 28.2 °F 30.2 °F 75% 29.75 in 12.0 mi NW 16.1 mph - N/A Rain Light Rain
10:37 AM 37.4 °F 28.5 °F - N/A% - 12.0 mi NNW 15.0 mph - N/A   Mostly Cloudy
11:00 AM 39.2 °F 32.0 °F 32.0 °F 75% 29.76 in 12.0 mi NNW 11.5 mph - N/A Rain Light Rain
11:32 AM 39.2 °F 33.6 °F - N/A% - 12.0 mi NNW 8.1 mph - N/A   Overcast
11:42 AM 37.4 °F 29.8 °F - N/A% - 12.0 mi NNW 11.5 mph 17.3 mph N/A Rain Light Rain
12:00 PM 37.4 °F 29.3 °F 33.8 °F 87% 29.78 in 8.0 mi NNW 12.7 mph 21.9 mph N/A Rain Light Rain
1:00 PM 39.2 °F 33.0 °F 33.8 °F 81% 29.79 in 10.0 mi North 9.2 mph - N/A   Overcast
1:22 PM 37.4 °F 29.8 °F - N/A% - 10.0 mi North 11.5 mph 17.3 mph N/A Rain Light Rain Showers
2:00 PM 39 °F - 35 °F 78% 29.80 in 10 mi NW 13.8 mph - - Rain Light Rain Showers
2:00 PM 39.2 °F 31.2 °F 33.8 °F 81% 29.80 in 10.0 mi NW 13.8 mph - N/A Rain Light Rain Showers
2:48 PM 39.2 °F 32.5 °F - N/A% - 15.0 mi North 10.4 mph 19.6 mph N/A   Mostly Cloudy
3:00 PM 39.2 °F 32.0 °F 33.8 °F 81% 29.81 in 15.0 mi North 11.5 mph - N/A   Mostly Cloudy
4:00 PM 39.2 °F 32.5 °F 33.8 °F 81% 29.83 in 15.0 mi North 10.4 mph - N/A   Mostly Cloudy
5:00 PM 39.2 °F 29.8 °F 30.2 °F 70% 29.85 in 15.0 mi North 18.4 mph - N/A   Mostly Cloudy
5:29 PM 39.2 °F 30.8 °F - N/A% - 15.0 mi NNW 15.0 mph - N/A Rain Light Rain Showers
6:00 PM 37.4 °F 28.5 °F 32.0 °F 81% 29.87 in 15.0 mi NNW 15.0 mph - N/A   Mostly Cloudy
7:00 PM 37.4 °F 28.5 °F 28.4 °F 70% 29.89 in 15.0 mi NW 15.0 mph 23.0 mph N/A   Mostly Cloudy
8:00 PM 38 °F - 29 °F 59% 29.91 in 15 mi NW 13.8 mph - -   Partly Cloudy
8:00 PM 37.4 °F 29.3 °F 28.4 °F 70% 29.91 in 15.0 mi NW 12.7 mph 18.4 mph N/A   Mostly Cloudy
9:00 PM 37.4 °F 28.5 °F 28.4 °F 70% 29.91 in 15.0 mi NW 15.0 mph - N/A   Overcast
10:00 PM 37.4 °F 31.4 °F 32.0 °F 81% 29.93 in 15.0 mi NW 8.1 mph - N/A   Overcast
11:00 PM 37.4 °F 28.9 °F 32.0 °F 81% 29.93 in 15.0 mi NW 13.8 mph - N/A   Mostly Cloudy